Regional Weather Roundup
Issued by NWS

Home | Current Version | Previous Version | Text Only | Print | Product List | Glossary On
Versions: 1 2 3 4 5 6 7 8 9 10 11 12 13 14 15 16 17 18 19 20 21 22 23 24 25 26 27 28 29 30 31 32 33 34 35 36 37 38 39 40 41 42 43 44 45 46 47 48 49 50
000
ASUS45 KABQ 221810
RWRNM
NEW MEXICO REGIONAL WEATHER ROUNDUP
NATIONAL WEATHER SERVICE ALBUQUERQUE NM
1200 PM MDT FRI SEP 22 2017

NOTE: "FAIR" MEANS FEW OR NO CLOUDS BELOW 12,000 FEET AGL WITH NO
       SIGNIFICANT WEATHER OR OBSTRUCTIONS TO VISION.

      THIS PRODUCT IS RELEASED AS TWO VERSIONS.  ONE VERSION NEAR
      THE TOP OF THE HOUR CONTAINING PRELIMINARY DATA FROM ALBUQUERQUE
      AND OTHER STATIONS.  A FINAL VERSION WITH ADDITIONAL DATA IS
      ISSUED ABOUT 10 MINUTES AFTER THE HOUR.

NMZ501-503-504-510>518-221900-
NORTHWEST PLATEAU/NORTHCENTRAL MOUNTAINS

CITY           SKY/WX    TMP DP  RH WIND       PRES   REMARKS
FARMINGTON     PTSUNNY   71  37  28 SW18G28   29.91F
6HR MIN TEMP:  62; 6HR MAX TEMP:  72;

LOS ALAMOS     FAIR      70  32  24 S18G32    30.07F
SANTA FE       FAIR      76  35  22 S14       30.03F
6HR MIN TEMP:  48; 6HR MAX TEMP:  76;

TAOS           FAIR      72  33  24 SW23G35   30.07F
ANGEL FIRE     FAIR      63  32  31 W20G30    30.14F

$$
NMZ402-403-502-505>509-221900-
WESTCENTRAL MOUNTAINS/SOUTHWEST MOUNTAINS

CITY           SKY/WX    TMP DP  RH WIND       PRES   REMARKS
GALLUP         CLOUDY    71  38  29 SW20G26   29.97F
6HR MIN TEMP:  50; 6HR MAX TEMP:  71;

GRANTS         FAIR      74  34  23 S22G36    30.00F
SILVER CITY    FAIR      78  41  26 SW17G24   30.02F

$$
NMZ407-409-411-412-221900-
SOUTHERN DESERTS

CITY           SKY/WX    TMP DP  RH WIND       PRES   REMARKS
DEMING         FAIR      86  42  21 W16G28    29.94F
6HR MIN TEMP:  58; 6HR MAX TEMP:  86;

LAS CRUCES     FAIR      86  40  19 SW12G20   29.98F
HOLLOMAN AFB   FAIR      89  44  20 S18       29.95F
ALAMOGORDO     FAIR      90  43  19 S12G22    29.96F
T OR C         FAIR      85  41  21 S23G31    29.93F
6HR MIN TEMP:  64; 6HR MAX TEMP:  85;


$$
NMZ519>523-221900-
CENTRAL VALLEYS/CENTRAL HIGHLANDS

CITY           SKY/WX    TMP DP  RH WIND       PRES   REMARKS
ALBUQUERQUE    PTSUNNY   78  39  24 SW12G21   29.97F
6HR MIN TEMP:  60; 6HR MAX TEMP:  78;

DOUBLE EAGLE   PTSUNNY   75  39  27 SE20      30.00F
MORIARTY ARPT  FAIR      81  36  20 SW17G25   30.04F
CLINES CORNERS FAIR      74  34  23 SW24G33   30.09F
6HR MIN TEMP:  51; 6HR MAX TEMP:  74;

BELEN          FAIR      82  36  19 S20       29.95F
6HR MIN TEMP:  58; 6HR MAX TEMP:  82;

SOCORRO        FAIR      83  39  20 S17G30    29.93F
6HR MIN TEMP:  57; 6HR MAX TEMP:  83;


$$
NMZ524>526-539-540-221900-
SOUTHCENTRAL MOUNTAINS

CITY           SKY/WX    TMP DP  RH WIND       PRES   REMARKS
RUIDOSO        FAIR      75  37  25 SW16G23   30.14S

$$
NMZ527>531-221900-
NORTHEAST HIGHLANDS/NORTHEAST PLAINS

CITY           SKY/WX    TMP DP  RH WIND       PRES   REMARKS
LAS VEGAS      FAIR      74  35  24 SW25G32   30.06F
6HR MIN TEMP:  51; 6HR MAX TEMP:  75;

RATON          FAIR      77  38  24 S21G29    29.97F
6HR MIN TEMP:  48; 6HR MAX TEMP:  77;

CLAYTON        FAIR      85  42  22 SW23G33   29.95F
6HR MIN TEMP:  56; 6HR MAX TEMP:  85;


$$
NMZ532>537-221900-
EASTCENTRAL PLAINS

CITY           SKY/WX    TMP DP  RH WIND       PRES   REMARKS
SANTA ROSA     FAIR      88  35  15 SW17G31   29.93F
TUCUMCARI      FAIR      92  51  24 SW16      29.89F
6HR MIN TEMP:  67; 6HR MAX TEMP:  92;

CANNON AFB     FAIR      83  62  48 S12       29.97F
6HR MIN TEMP:  64; 6HR MAX TEMP:  83;

CLOVIS AIRPORT FAIR      83  64  52 S13G22    29.97F

$$
NMZ028-029-538-221900-
SOUTHEAST PLAINS

CITY           SKY/WX    TMP DP  RH WIND       PRES   REMARKS
ROSWELL        FAIR      89  56  32 SE12      29.91F
6HR MIN TEMP:  62; 6HR MAX TEMP:  89;

ARTESIA        FAIR      88  59  37 SE8       29.91F
CARLSBAD       FAIR      87  64  46 SE12      29.89F
6HR MIN TEMP:  65; 6HR MAX TEMP:  87;

HOBBS          SUNNY     84  63  48 SE14      29.95F


$$



USA.gov is the U.S. government's official web portal to all federal, state and local government web resources and services.